Location: Gerlach
(40.6516°N, 119.3568°W)
Time: 04:23:27
(UTC-07:00)

Explorer 11/Cluster Stage 4 - Pass Details

Date: 31 January 2023
Orbit: 466 x 1241 km, 28.8° (Epoch: 02 April)

Event Time Altitude Azimuth Distance (km) Brightness Sun altitude
Exits shadow 04:13:25 - 182° (S) 3,352 9.7 -33.3°
Reaches altitude 10° 04:14:47 10° 174° (S) 3,169 9.7 -33.1°
Maximum altitude 04:17:52 13° 151° (SSE) 2,997 9.8 -32.5°
Drops below altitude 10° 04:20:58 10° 128° (SE) 3,198 10.2 -31.9°
Sets 04:25:57 0° 102° (ESE) 4,121 11.3 -31.0°
